Weather History for Kingstree, SC

Change the Weather History Date:

Monday, July 21, 2014

  Actual Average Record
Temperature  
Mean Temperature 81 °F -  
Max Temperature 89 °F 93 °F 100 °F (2011)
Min Temperature 73 °F 67 °F 71 °F (2010)
Cooling Degree Days 16    
Growing Degree Days 31 (Base 50)    
Moisture  
Dew Point 74 °F    
Average Humidity 87    
Maximum Humidity 100    
Minimum Humidity 55    
Precipitation  
Precipitation 0.00 in - - ()
Sea Level Pressure  
Sea Level Pressure 30.08 in    
Wind  
Wind Speed 3 mph (SSE)    
Max Wind Speed 10 mph    
Max Gust Speed 25 mph    
Visibility 9 miles    
Events Rain , Thunderstorm    
Averages and records for this station are not official NWS values.
T = Trace of Precipitation, MM = Missing Value Source: NWS Daily Summary

Daily Weather History Graph

Daily Weather History Graph

Search for Another Location

Airport:

Trip Planner

Search our weather history database for the weather conditions in past years. The results will help you decide how hot, cold, wet, or windy it might be!

Date:

Astronomy

Jul. 21, 2014 Rise Set
Actual Time 6:23 AM EDT 8:27 PM EDT
Civil Twilight 5:55 AM EDT 8:55 PM EDT
Nautical Twilight 5:21 AM EDT 9:29 PM EDT
Astronomical Twilight 4:45 AM EDT 10:05 PM EDT
Moon 2:09 AM EDT (7/21) 4:10 PM EDT (7/21)
Length of Visible Light 14h 59m
Length of Day
14h 03m
Waning Crescent, 24% of the Moon is Illuminated
Jul 21
Waning Crescent
Jul 26
New
Aug 3
First Quarter
Aug 10
Full
Aug 17
Last Quarter

Hourly Weather History & Observations

Time (EDT) Temp. Heat Index Dew Point Humidity Pressure Visibility Wind Dir Wind Speed Gust Speed Precip Events Conditions
12:15 AM 78.8 °F - 77.0 °F 94% 30.06 in 10.0 mi ESE 3.5 mph - N/A   Overcast
12:35 AM 78.8 °F - 77.0 °F 94% 30.06 in 10.0 mi SE 4.6 mph - N/A   Mostly Cloudy
12:55 AM 78.8 °F - 75.2 °F 89% 30.07 in 10.0 mi SSE 3.5 mph - N/A   Mostly Cloudy
1:15 AM 78.8 °F - 75.2 °F 89% 30.07 in 10.0 mi SE 4.6 mph - N/A   Mostly Cloudy
1:35 AM 77.0 °F - 75.2 °F 94% 30.06 in 10.0 mi Calm Calm - N/A   Scattered Clouds
1:55 AM 77.0 °F - 75.2 °F 94% 30.06 in 10.0 mi Calm Calm - N/A   Scattered Clouds
2:15 AM 77.0 °F - 75.2 °F 94% 30.05 in 10.0 mi Calm Calm - N/A   Overcast
2:35 AM 77.0 °F - 75.2 °F 94% 30.04 in 10.0 mi Calm Calm - N/A Thunderstorm Overcast
2:55 AM 77.0 °F - 75.2 °F 94% 30.04 in 10.0 mi Calm Calm - N/A   Mostly Cloudy
3:15 AM 77.0 °F - 75.2 °F 94% 30.05 in 10.0 mi SE 4.6 mph - N/A   Mostly Cloudy
3:35 AM 77.0 °F - 75.2 °F 94% 30.04 in 10.0 mi SE 3.5 mph - N/A   Overcast
3:55 AM 77.0 °F - 75.2 °F 94% 30.03 in 10.0 mi Calm Calm - N/A   Overcast
4:15 AM 77.0 °F - 75.2 °F 94% 30.03 in 10.0 mi Calm Calm - N/A   Scattered Clouds
4:35 AM 77.0 °F - 73.4 °F 89% 30.03 in 7.0 mi Calm Calm - N/A   Scattered Clouds
4:55 AM 77.0 °F - 73.4 °F 89% 30.03 in 7.0 mi Calm Calm - N/A   Scattered Clouds
5:15 AM 77.0 °F - 73.4 °F 89% 30.04 in 7.0 mi Calm Calm - N/A   Mostly Cloudy
5:35 AM 77.0 °F - 73.4 °F 89% 30.05 in 7.0 mi Calm Calm - N/A   Mostly Cloudy
5:55 AM 77.0 °F - 73.4 °F 89% 30.06 in 7.0 mi Calm Calm - N/A   Mostly Cloudy
6:15 AM 77.0 °F - 73.4 °F 89% 30.06 in 7.0 mi Calm Calm - N/A   Overcast
6:35 AM 77.0 °F - 73.4 °F 89% 30.06 in 5.0 mi Calm Calm - N/A   Overcast
6:55 AM 77.0 °F - 73.4 °F 89% 30.07 in 7.0 mi Calm Calm - N/A   Scattered Clouds
7:15 AM 77.0 °F - 75.2 °F 94% 30.08 in 7.0 mi Calm Calm - N/A   Scattered Clouds
7:35 AM 77.0 °F - 75.2 °F 94% 30.09 in 10.0 mi East 3.5 mph - N/A   Light Drizzle
7:55 AM 77.0 °F - 75.2 °F 94% 30.09 in 10.0 mi SE 3.5 mph - N/A   Overcast
8:15 AM 77.0 °F - 75.2 °F 94% 30.10 in 10.0 mi South 3.5 mph - N/A   Scattered Clouds
8:35 AM 77.0 °F - 75.2 °F 94% 30.10 in 10.0 mi Calm Calm - N/A   Mostly Cloudy
8:55 AM 78.8 °F - 75.2 °F 89% 30.09 in 10.0 mi South 3.5 mph - N/A   Mostly Cloudy
9:35 AM 78.8 °F - 75.2 °F 89% 30.09 in 10.0 mi South 3.5 mph - N/A Thunderstorm Scattered Clouds
9:55 AM 80.6 °F 87.1 °F 77.0 °F 89% 30.09 in 10.0 mi South 3.5 mph - N/A   Clear
10:15 AM 82.4 °F 90.9 °F 77.0 °F 84% 30.10 in 10.0 mi SSW 3.5 mph - N/A   Mostly Cloudy
10:35 AM 82.4 °F 89.5 °F 75.2 °F 79% 30.09 in 10.0 mi SSW 3.5 mph - N/A   Overcast
10:55 AM 82.4 °F 90.9 °F 77.0 °F 84% 30.09 in 10.0 mi SW 5.8 mph - N/A   Overcast
11:15 AM 84.2 °F 92.3 °F 75.2 °F 74% 30.09 in 10.0 mi SW 4.6 mph - N/A   Overcast
11:35 AM 86.0 °F 95.1 °F 75.2 °F 70% 30.09 in 10.0 mi SSW 4.6 mph - N/A   Mostly Cloudy
11:55 AM 84.2 °F 92.3 °F 75.2 °F 74% 30.09 in 10.0 mi South 5.8 mph - N/A Thunderstorm Mostly Cloudy
12:15 PM 84.2 °F 92.3 °F 75.2 °F 74% 30.09 in 10.0 mi SW 8.1 mph - N/A Thunderstorm Thunderstorm
12:35 PM 86.0 °F 95.1 °F 75.2 °F 70% 30.08 in 10.0 mi SSW 6.9 mph - N/A Thunderstorm Scattered Clouds
12:55 PM 86.0 °F 93.4 °F 73.4 °F 66% 30.08 in 10.0 mi SSW 5.8 mph - N/A Thunderstorm Thunderstorm
1:15 PM 87.8 °F 95.6 °F 73.4 °F 62% 30.08 in 10.0 mi South 6.9 mph - N/A Thunderstorm Thunderstorm
1:55 PM 87.8 °F 95.6 °F 73.4 °F 62% 30.07 in 10.0 mi SSW 6.9 mph - N/A Thunderstorm Scattered Clouds
2:15 PM 87.8 °F 95.6 °F 73.4 °F 62% 30.07 in 10.0 mi SSW 6.9 mph - N/A Thunderstorm Scattered Clouds
2:35 PM 87.8 °F 95.6 °F 73.4 °F 62% 30.06 in 10.0 mi SSE 10.4 mph - N/A Thunderstorm Scattered Clouds
2:55 PM 89.6 °F 96.2 °F 71.6 °F 55% 30.07 in 10.0 mi South 9.2 mph - N/A   Mostly Cloudy
3:15 PM 82.4 °F 87.2 °F 71.6 °F 70% 30.09 in 10.0 mi North 9.2 mph 25.3 mph N/A Thunderstorm Scattered Clouds
3:35 PM 78.8 °F - 73.4 °F 83% 30.09 in 10.0 mi NNW 8.1 mph 18.4 mph N/A   Overcast
3:55 PM 78.8 °F - 73.4 °F 83% 30.08 in 10.0 mi North 8.1 mph - N/A   Mostly Cloudy
4:15 PM 77.0 °F - 73.4 °F 89% 30.08 in 7.0 mi North 5.8 mph - N/A Rain , Thunderstorm Light Thunderstorms and Rain
4:35 PM 77.0 °F - 73.4 °F 89% 30.10 in 1.8 mi North 6.9 mph - N/A Rain Heavy Rain
4:55 PM 75.2 °F - 73.4 °F 94% 30.10 in 3.0 mi NE 5.8 mph - N/A Rain , Thunderstorm Heavy Thunderstorms and Rain
5:15 PM 77.0 °F - 73.4 °F 89% 30.11 in 10.0 mi East 6.9 mph - N/A   Light Drizzle
5:35 PM 77.0 °F - 73.4 °F 89% 30.09 in 10.0 mi ENE 6.9 mph - N/A Thunderstorm Overcast
5:55 PM 77.0 °F - 73.4 °F 89% 30.09 in 10.0 mi East 10.4 mph - N/A Thunderstorm Scattered Clouds
6:15 PM 77.0 °F - 73.4 °F 89% 30.09 in 10.0 mi ENE 3.5 mph - N/A   Scattered Clouds
6:35 PM 77.0 °F - 73.4 °F 89% 30.09 in 10.0 mi East 5.8 mph - N/A   Mostly Cloudy
6:55 PM 75.2 °F - 73.4 °F 94% 30.08 in 10.0 mi ESE 8.1 mph - N/A   Scattered Clouds
7:15 PM 75.2 °F - 73.4 °F 94% 30.08 in 10.0 mi ESE 3.5 mph - N/A   Clear
7:55 PM 75.2 °F - 73.4 °F 94% 30.07 in 10.0 mi ESE 5.8 mph - N/A Rain Light Rain
8:15 PM 75.2 °F - 73.4 °F 94% 30.06 in 10.0 mi ESE 5.8 mph - N/A   Scattered Clouds
8:35 PM 75.2 °F - 73.4 °F 94% 30.07 in 10.0 mi ESE 8.1 mph - N/A   Light Drizzle
8:55 PM 75.2 °F - 73.4 °F 94% 30.08 in 10.0 mi SE 5.8 mph - N/A   Light Drizzle
9:15 PM 75.2 °F - 73.4 °F 94% 30.09 in 10.0 mi Calm Calm - N/A   Mostly Cloudy
9:35 PM 75.2 °F - 73.4 °F 94% 30.10 in 10.0 mi Calm Calm - N/A   Scattered Clouds
10:15 PM 75.2 °F - 73.4 °F 94% 30.12 in 10.0 mi Calm Calm - N/A   Overcast
10:35 PM 75.2 °F - 73.4 °F 94% 30.12 in 10.0 mi Calm Calm - N/A   Overcast
10:55 PM 75.2 °F - 73.4 °F 94% 30.11 in 10.0 mi Calm Calm - N/A   Overcast
11:15 PM 73.4 °F - 73.4 °F 100% 30.11 in 10.0 mi Calm Calm - N/A   Overcast
11:35 PM 73.4 °F - 73.4 °F 100% 30.11 in 10.0 mi Calm Calm - N/A   Overcast
11:55 PM 73.4 °F - 73.4 °F 100% 30.11 in 10.0 mi Calm Calm - N/A   Overcast